This demonstration page uses our WeatherBlox Daily Observations layout. Learn more.

Left ArrowRight Arrow

Hourly Observations for December 6, 2020

Temp ( °F °C ) Dew Point ( °F °C ) Humidity (%) Winds ( mph kmh ) Pressure ( in mb ) Visibility ( mi km ) Precip ( " mm )
12:15 am 00:15 Clear 31 -0.5 21 -5.9 67 67 WNW 8 13 30.28 1025 10 16 N/A
12:35 am 00:35 Clear 32 undefined 22 -5.5 67 67 WNW 8 13 30.27 1025 10 16 N/A
12:55 am 00:55 Clear 31 -0.5 22 -5.7 68 68 WNW 8 13 30.27 1025 10 16 N/A
1:15 am 01:15 Clear 32 undefined 22 -5.5 67 67 WNW 7 11 30.27 1025 10 16 N/A
1:35 am 01:35 Clear 31 -0.8 22 -5.5 71 71 WNW 7 11 30.27 1025 10 16 N/A
1:55 am 01:55 Clear 32 undefined 23 -5.2 68 68 NW 7 11 30.27 1025 10 16 N/A
2:15 am 02:15 Clear 32 undefined 23 -5.2 68 68 WNW 8 13 30.27 1025 10 16 N/A
2:35 am 02:35 Clear 30 -1 22 -5.6 71 71 NW 8 13 30.29 1026 10 16 N/A
2:55 am 02:55 Clear 30 -1.1 22 -5.6 72 72 NW 10 17 30.29 1026 10 16 N/A
3:15 am 03:15 Clear 30 -1 22 -5.8 70 70 NW 9 15 30.29 1026 10 16 N/A
3:35 am 03:35 Clear 29 -1.4 22 -5.8 72 72 WNW 9 15 30.28 1025 10 16 N/A
3:55 am 03:55 Clear 29 -1.4 21 -6 71 71 WNW 9 15 30.29 1026 10 16 N/A
4:15 am 04:15 Clear 28 -2.1 21 -6.2 74 74 NW 9 15 30.29 1026 10 16 N/A
4:35 am 04:35 Clear 29 -1.7 21 -6 73 73 NW 8 13 30.27 1025 10 16 N/A
4:55 am 04:55 Clear 28 -2.1 21 -6.1 74 74 NW 8 13 30.28 1025 10 16 N/A
5:15 am 05:15 Clear 29 -1.6 21 -6.1 72 72 NW 9 15 30.27 1025 10 16 N/A
5:35 am 05:35 Clear 28 -2.1 20 -6.4 73 73 NW 8 13 30.27 1025 10 16 N/A
5:55 am 05:55 Clear 29 -1.9 21 -6.2 73 73 NW 9 15 30.27 1025 10 16 N/A
6:15 am 06:15 Clear 28 -2.2 20 -6.5 73 73 NNW 9 15 30.28 1025 10 16 N/A
6:35 am 06:35 Clear 28 -2.5 20 -6.5 74 74 NW 7 11 30.28 1025 10 16 N/A
6:55 am 06:55 Clear 26 -3.5 19 -7 77 77 NW 7 11 30.29 1026 10 16 N/A
7:15 am 07:15 Clear 25 -3.8 19 -7 79 79 WNW 7 11 30.30 1026 10 16 N/A
7:35 am 07:35 Clear 25 -3.8 19 -7 79 79 WNW 7 11 30.30 1026 10 16 N/A
7:55 am 07:55 Sunny 24 -4.6 19 -7.2 82 82 WNW 8 13 30.30 1026 10 16 N/A
8:15 am 08:15 Sunny 25 -3.9 19 -7.1 79 79 NW 8 13 30.30 1026 10 16 N/A
8:35 am 08:35 Sunny 26 -3.3 20 -6.4 79 79 WNW 7 11 30.30 1026 10 16 N/A
8:55 am 08:55 Sunny 29 -1.9 22 -5.5 77 77 NW 6 9 30.29 1026 10 16 N/A
9:15 am 09:15 Sunny 31 -0.3 23 -5 71 71 NNW 6 9 30.28 1025 10 16 N/A
9:35 am 09:35 Sunny 33 0.7 24 -4.3 70 70 N N/A 30.28 1025 10 16 N/A
9:55 am 09:55 Sunny 35 1.6 25 -4.1 66 66 N 6 9 30.28 1025 10 16 N/A
10:15 am 10:15 Sunny 37 2.6 26 -3.6 64 64 N 5 7 30.27 1025 10 16 N/A
10:35 am 10:35 Sunny 39 4 27 -3 61 61 N 6 9 30.25 1024 10 16 N/A
10:55 am 10:55 Sunny 40 4.7 27 -2.6 60 60 N N/A 30.24 1024 10 16 N/A
11:15 am 11:15 Sunny 42 5.3 28 -2.3 58 58 N N/A 30.24 1024 10 16 N/A
11:35 am 11:35 Sunny 44 6.4 28 -2 55 55 WNW 5 7 30.21 1023 10 16 N/A
11:55 am 11:55 Sunny 46 7.5 29 -1.5 53 53 WNW 5 7 30.20 1023 10 16 N/A
12:15 pm 12:15 Sunny 47 8.1 29 -1.5 51 51 N N/A 30.18 1022 10 16 N/A
12:35 pm 12:35 Sunny 47 8.6 29 -1.7 49 49 N 5 7 30.18 1022 10 16 N/A
12:55 pm 12:55 Sunny 49 9.7 29 -1.6 46 46 N 5 7 30.17 1022 10 16 N/A
1:15 pm 13:15 Sunny 50 9.9 28 -2 44 44 NW 6 9 30.15 1021 10 16 N/A
1:35 pm 13:35 Sunny 51 10.5 28 -2.2 41 41 NW 5 7 30.14 1021 10 16 N/A
1:55 pm 13:55 Sunny 52 11 28 -2.4 39 39 N 6 9 30.13 1020 10 16 N/A
2:15 pm 14:15 Sunny 52 11.3 27 -2.8 37 37 NNW 7 11 30.12 1020 10 16 N/A
2:35 pm 14:35 Sunny 53 11.4 27 -2.9 37 37 NW 7 11 30.12 1020 10 16 N/A
2:55 pm 14:55 Sunny 53 11.6 27 -2.9 36 36 NW 8 13 30.12 1020 10 16 N/A
3:15 pm 15:15 Sunny 53 11.7 27 -3 36 36 NW 7 11 30.12 1020 10 16 N/A
3:35 pm 15:35 Sunny 53 11.8 26 -3.4 35 35 NNW 7 11 30.12 1020 10 16 N/A
3:55 pm 15:55 Sunny 53 11.5 26 -3.5 35 35 NW 6 9 30.12 1020 10 16 N/A
4:15 pm 16:15 Sunny 52 11.3 26 -3.6 35 35 NNW 6 9 30.12 1020 10 16 N/A
4:35 pm 16:35 Sunny 51 10.6 25 -3.8 36 36 NNW 6 9 30.13 1020 10 16 N/A
4:55 pm 16:55 Sunny 49 9.6 25 -4.1 38 38 N N/A 30.15 1021 10 16 N/A
5:15 pm 17:15 Clear 46 7.8 24 -4.5 42 42 N N/A 30.16 1021 10 16 N/A
5:35 pm 17:35 Clear 43 6 24 -4.4 48 48 N N/A 30.18 1022 10 16 N/A
5:55 pm 17:55 Clear 42 5.6 24 -4.2 50 50 N N/A 30.18 1022 10 16 N/A
6:15 pm 18:15 Clear 39 4.1 24 -4.3 55 55 N N/A 30.20 1023 10 16 N/A
6:35 pm 18:35 Clear 40 4.4 25 -4.1 54 54 N N/A 30.19 1022 10 16 N/A
6:55 pm 18:55 Clear 36 2.3 23 -5.2 58 58 N N/A 30.21 1023 10 16 N/A
7:15 pm 19:15 Clear 34 1 22 -5.6 62 62 N N/A 30.23 1024 10 16 N/A
7:35 pm 19:35 Clear 35 1.8 23 -4.8 62 62 N N/A 30.22 1023 10 16 N/A
7:55 pm 19:55 Clear 32 0.2 22 -5.5 66 66 N N/A 30.23 1024 10 16 N/A
8:15 pm 20:15 Clear 32 -0.1 22 -5.8 66 66 N N/A 30.25 1024 10 16 N/A
8:35 pm 20:35 Clear 31 -0.6 21 -6.3 66 66 N N/A 30.25 1024 10 16 N/A
8:55 pm 20:55 Clear 29 -1.4 20 -6.5 69 69 W 6 9 30.26 1025 10 16 N/A
9:15 pm 21:15 Clear 32 -0.2 23 -5.2 69 69 WNW 3 6 30.25 1024 10 16 N/A
9:35 pm 21:35 Clear 32 undefined 22 -5.4 67 67 W 3 6 30.25 1024 10 16 N/A
9:55 pm 21:55 Clear 35 1.6 24 -4.2 66 66 W 5 7 30.23 1024 10 16 N/A
10:15 pm 22:15 Clear 30 -1 22 -5.4 72 72 W 5 7 30.25 1025 10 16 N/A
10:35 pm 22:35 Clear 33 0.5 24 -4.5 69 69 W 5 7 30.24 1024 10 16 N/A
10:55 pm 22:55 Clear 34 1 24 -4.5 67 67 W 3 6 30.24 1024 10 16 N/A
11:15 pm 23:15 Clear 33 0.5 24 -4.7 68 68 W 5 7 30.24 1024 10 16 N/A
11:35 pm 23:35 Clear 33 0.6 23 -4.9 67 67 W 6 9 30.24 1024 10 16 N/A
11:55 pm 23:55 Clear 34 1.1 24 -4.6 66 66 W 6 9 30.22 1024 10 16 N/A

Powered by AerisWeather